Location: Shandelee
(41.8790°N, 74.8713°W)
Time: 13:44:13
(UTC+00:00)

Cosmos 44 Rocket - Pass Details

Date: 29 October 2020
Orbit: 642 x 748 km, 65.1° (Epoch: 01 December)

Event Time Altitude Azimuth Distance (km) Brightness Sun altitude
Rises 23:06:21 0° 194° (SSW) 2,966 6.8 -13.5°
Reaches altitude 10° 23:08:41 10° 188° (S) 2,072 5.9 -13.9°
Maximum altitude 23:13:10 46° 116° (ESE) 912 3.5 -14.7°
Enters shadow 23:16:14 20° 52° (NE) 1,582 4.7 -15.3°
